Palmdale - Butte, CA

1:53 PM PST on December 15, 2017 (GMT -0800)
Palmdale - Butte

Weather History for KGXA - September, 2013

Change the Weather History Date:

Friday, September 20, 2013

  Actual Average (KPMD) Record (KPMD)
Temperature  
Mean Temperature 74 °F -  
Max Temperature 90 °F 87 °F 101 °F (1995)
Min Temperature 56 °F 53 °F 34 °F (1978)
Cooling Degree Days 10    
Growing Degree Days 24 (Base 50)    
Moisture  
Dew Point 31 °F    
Average Humidity 25    
Maximum Humidity 69    
Minimum Humidity 10    
Precipitation  
Precipitation 0.00 in - - ()
Sea Level Pressure  
Sea Level Pressure 29.74 in    
Wind  
Wind Speed 6 mph (South)    
Max Wind Speed 12 mph    
Max Gust Speed 18 mph    
Visibility 10 miles    
Events      
Averages and records for this station are not official NWS values.
T = Trace of Precipitation, MM = Missing Value Source: NWS Daily Summary

Daily Weather History Graph

Daily Weather History Graph

Search for Another Location

Airport or City:

Trip Planner

Search our weather history database for the weather conditions in past years. The results will help you decide how hot, cold, wet, or windy it might be!

Date:

Astronomy

Sep. 20, 2013 Rise Set
Actual Time 6:37 AM PDT 6:49 PM PDT
Civil Twilight 6:12 AM PDT 7:14 PM PDT
Nautical Twilight 5:42 AM PDT 7:44 PM PDT
Astronomical Twilight 5:13 AM PDT 8:14 PM PDT
Moon 7:32 PM PDT (9/20) 7:52 AM PDT (9/20)
Length of Visible Light 13h 02m
Length of Day
12h 12m
Full, 98% of the Moon is Illuminated
Sep 20
Full
Sep 26
Last Quarter
Oct 4
New
Oct 11
First Quarter
Oct 18
Full

Hourly Weather History & Observations

Time (PDT) Temp. Dew Point Humidity Pressure Visibility Wind Dir Wind Speed Gust Speed Precip Events Conditions
12:55 AM 64.6 °F 21.0 °F 19% 29.74 in 10.0 mi South 5.8 mph - N/A   Clear
1:55 AM 63.1 °F 22.5 °F 21% 29.74 in 10.0 mi SSE 4.6 mph - N/A   Clear
2:55 AM 63.0 °F 23.9 °F 23% 29.73 in 10.0 mi South 5.8 mph - N/A   Clear
3:55 AM 60.8 °F 23.9 °F 24% 29.73 in 10.0 mi SSE 5.8 mph - N/A   Clear
4:55 AM 59.0 °F 24.8 °F 27% 29.74 in 10.0 mi SSE 5.8 mph - N/A   Clear
5:55 AM 60.6 °F 26.4 °F 27% 29.74 in 10.0 mi SSE 5.8 mph - N/A   Clear
6:55 AM 61.2 °F 26.4 °F 27% 29.76 in 10.0 mi SSE 6.9 mph - N/A   Clear
7:55 AM 68.0 °F 27.1 °F 22% 29.77 in 10.0 mi SSE 3.5 mph - N/A   Clear
8:55 AM 79.5 °F 25.3 °F 14% 29.76 in 10.0 mi ENE 3.5 mph - N/A   Partly Cloudy
9:55 AM 82.8 °F 23.9 °F 12% 29.76 in 10.0 mi Variable 5.8 mph - N/A   Clear
10:55 AM 85.3 °F 25.3 °F 11% 29.75 in 10.0 mi Variable 5.8 mph - N/A   Clear
11:55 AM 88.0 °F 26.4 °F 11% 29.74 in 10.0 mi NW 9.2 mph 18.4 mph N/A   Clear
12:55 PM 90.7 °F 26.2 °F 10% 29.73 in 10.0 mi West 5.8 mph - N/A   Clear
1:55 PM 90.9 °F 25.9 °F 10% 29.70 in 10.0 mi Variable 5.8 mph - N/A   Clear
2:55 PM 90.7 °F 26.1 °F 10% 29.69 in 10.0 mi NW 10.4 mph 16.1 mph N/A   Clear
3:55 PM 89.8 °F 34.0 °F 14% 29.68 in 10.0 mi North 10.4 mph 13.8 mph N/A   Clear
4:55 PM 89.2 °F 25.5 °F 10% 29.68 in 10.0 mi South 10.4 mph 18.4 mph N/A   Clear
5:55 PM 85.6 °F 27.9 °F 12% 29.68 in 10.0 mi South 11.5 mph - N/A   Clear
6:55 PM 77.7 °F 40.3 °F 26% 29.72 in 10.0 mi North 9.2 mph - N/A   Clear
7:55 PM 72.3 °F 40.6 °F 32% 29.76 in 10.0 mi NNW 6.9 mph - N/A   Clear
8:55 PM 66.7 °F 46.8 °F 49% 29.77 in 10.0 mi SW 6.9 mph - N/A   Clear
9:55 PM 62.2 °F 49.5 °F 63% 29.77 in 10.0 mi SSE 2.3 mph - N/A   Clear
10:55 PM 59.0 °F 47.1 °F 65% 29.78 in 10.0 mi WSW 2.3 mph - N/A   Clear
11:55 PM 56.7 °F 46.6 °F 69% 29.78 in 10.0 mi SSE 3.5 mph - N/A   Clear